Tracking 19293 objects as of 20-Nov-2018
HD Live streaming from Space Station
objects crossing your sky now

SAKURA 2B (CS-2B)

Track SAKURA 2B (CS-2B) now!
SAKURA 2B (CS-2B) is classified as:


NORAD ID: 14248
Int'l Code: 1983-081A
Perigee: 36,177.2 km
Apogee: 36,239.5 km
Inclination: 14.8 °
Period: 1,457.3 minutes
Semi major axis: 42579 km
RCS: 8.9693 m2 (large)
Launch date: August 5, 1983
Source: Japan (JPN)
Launch site: TANEGASHIMA SPACE CENTER (TNSTA)
aabbcc
Your satellite tracking list
Your tracking list is empty




NASA's NSSDC Master Catalog

Two Line Element Set (TLE):
1 14248U 83081A   18323.65941045  .00000027  00000-0  00000+0 0  9998
2 14248  14.8312 347.1136 0007308 321.8180 217.0432  0.98810810 96410
Source of the keplerian elements: AFSPC